Notices

What's New in latest Release from April 7th, 2021:

- Updated Glossary, including Speed of Maximum Gust, and Total Hourly Precipitation

- Updated national and regional climate services offices contacts and prices information

- Addition of station inventory lists for 1981-2010, 1971-2000, and 1961-1990 Normals.

If you haven't already, please take our survey and provide feedback about our website: https://eccc.sondage-survey.ca/f/LanguageSelection.aspx?s=442ca660-fcf1-47c0-95a9-59707d6fd709

Hourly Data Report for April 10, 2017

KENORA A
ONTARIO

49°47'18.000" N
94°21'47.000" W
409.70 m
6034076
71850
YQK

Download Data

Hourly Data (April 2017)
Hourly Data Report for April 10, 2017
TIME
LST
Temp Definition
°C
Dew Point Definition
°C
Rel Hum Definition
%
Precip. Amount Definition
mm

Wind Dir Definition
10's deg

Wind Spd Definition
km/h
Visibility Definition
km
Stn Press Definition
kPa
Hmdx Definition


Wind Chill Definition


Weather Definition


00:00 -5.4 -10.8 66   3 20 24.1 96.80   -12 Mainly Clear
01:00 -6.4 -11.2 69   3 22 24.1 96.84   -14 LegendNANA
02:00 -7.2 -12.0 69   4 16 24.1 96.91   -14 LegendNANA
03:00 -7.6 -12.2 70   3 14 24.1 97.04   -14 Mainly Clear
04:00 -7.9 -12.6 69   2 15 24.1 97.12   -14 LegendNANA
05:00 -8.3 -13.2 68   2 20 24.1 97.12   -16 LegendNANA
06:00 -8.4 -13.7 66   2 14 24.1 97.26   -15 Mainly Clear
07:00 -7.4 -13.9 60   3 16 24.1 97.43   -14 LegendNANA
08:00 -5.9 -14.8 50   4 16 24.1 97.50   -12 LegendNANA
09:00 -4.1 -14.4 45   4 20 24.1 97.50   -10 Mainly Clear
10:00 -2.2 -14.7 38   4 14 24.1 97.50   -7 LegendNANA
11:00 0.1 -15.2 31   5 20 24.1 97.48     LegendNANA
12:00 1.4 -16.6 25   5 20 24.1 97.47     Mainly Clear
13:00 2.6 -16.1 24   5 23 24.1 97.47     LegendNANA
14:00 3.8 -15.6 23   2 17 24.1 97.44     LegendNANA
15:00 5.0 -16.9 19   5 16 24.1 97.42     Mainly Clear
16:00 5.4 -15.9 20   36 14 24.1 97.41     LegendNANA
17:00 5.1 -16.2 20   2 15 24.1 97.41     LegendNANA
18:00 4.6 -16.0 21   4 17 24.1 97.39     Mainly Clear
19:00 2.3 -15.4 26   3 5 24.1 97.44     LegendNANA
20:00 1.1 -14.7 30   3 7 24.1 97.46     LegendNANA
21:00 0.5 -14.4 32   8 7 24.1 97.48     Mainly Clear
22:00 -0.8 -14.5 35   8 11 24.1 97.48   -5 LegendNANA
23:00 -1.4 -14.0 38   8 13 24.1 97.45   -6 LegendNANA

Notes on Data Quality.

Legend

  • E = Estimated
  • M = Missing
  • NA = Not Available*
  • [empty] = Indicates an unobserved value
Date modified: